Home > Time Zones > World Clock > Weather > Serbia > Niš > Past weeks

Flag for Serbia Weather past 2 weeks in Niš, Serbia

Now
72 °F

Broken clouds.


Feels Like: 71 °F
Forecast: 62 / 83 °F
Wind: 12 mph from Northwest

Location: Nis Airport

Current Time: Aug 1, 2014 at 2:53:34 PM

Latest Report: Aug 1, 2014 at 2:00 PM


Visibility: N/A

Pressure: 29.80 "Hg

Humidity: 83%

Dew point: 66 °F

Location of NišLocation

Historic Weather in Niš — Graph

°F

Niš temperature yesterday

Maximum temperature yesterday: 81 °F (at 11:30 AM)
Minimum temperature yesterday: 64 °F (at 2:00 PM)
Average temperature yesterday: 69 °F

Past Weeks' High & Low Weather Summary

 TemperatureHumidityPressure
High93 °F (Jul 21, 3:30 PM)100% (Jul 20, 5:00 AM)30.04 "Hg (Jul 20, 5:00 AM)
Low59 °F (Jul 25, 6:00 AM)34% (Jul 21, 3:30 PM)29.71 "Hg (Jul 23, 3:00 PM)
Average73 °F76%29.88 "Hg
* Reported Jul 17 1:00 PM — Aug 1 1:30 PM, Niš, Weather by CustomWeather, © 2014

Note: Actual official high and low records may vary slightly from our data, if they occured in-between our weather recording intervals... More about our weather records

Advertising

Niš weather history for previous 24 hours

 ConditionsComfort  
Time TempWeatherWind HumidityBarometerVisibility
1:30 PM
Aug 1
72 °FBroken clouds.12 mph83%29.80 "HgN/A
1:00 PM70 °FLight rain. Partly sunny.9 mph88%29.80 "HgN/A
12:30 PM70 °FLight rain. Partly sunny.12 mph83%29.80 "HgN/A
12:00 PM68 °FScattered clouds.10 mph88%29.80 "HgN/A
11:30 AM66 °FBroken clouds.10 mph94%29.80 "HgN/A
11:00 AM66 °FLight rain. Partly sunny.8 mph94%29.80 "HgN/A
10:30 AM66 °FLight rain. Partly sunny.9 mph94%29.80 "HgN/A
10:00 AM66 °FPartly sunny.9 mph94%29.80 "HgN/A
9:30 AM66 °FPartly sunny.8 mph94%29.80 "HgN/A
9:00 AM66 °FPartly sunny.8 mph94%29.80 "HgN/A
8:30 AM66 °FPartly sunny.9 mph94%29.80 "HgN/A
8:00 AM64 °FPartly sunny.9 mph100%29.80 "HgN/A
7:30 AM64 °FPartly sunny.9 mph100%29.80 "HgN/A
7:00 AM64 °FPartly sunny.8 mph100%29.77 "HgN/A
6:30 AM64 °FPartly sunny.9 mph100%29.77 "HgN/A
5:30 AM64 °FLight rain. Passing clouds.8 mph94%29.80 "HgN/A
5:00 AM64 °FLight rain. Passing clouds.7 mph94%29.80 "HgN/A
4:30 AM64 °FLight rain. Passing clouds.8 mph100%29.80 "HgN/A
4:00 AM64 °FLight rain. Passing clouds.6 mph100%29.77 "HgN/A
3:30 AM64 °FLight rain. Passing clouds.6 mph100%29.77 "HgN/A
3:00 AM64 °FLight rain. Passing clouds.2 mph100%29.77 "HgN/A
2:30 AM64 °FLight rain. Passing clouds.8 mph100%29.77 "HgN/A
2:00 AM64 °FLight rain. Passing clouds.6 mph100%29.77 "HgN/A
1:30 AM64 °FPassing clouds.7 mph100%29.77 "Hg5 mi
1:00 AM64 °FPassing clouds.1 mph100%29.80 "Hg5 mi
12:30 AM64 °FPassing clouds.1 mph100%29.80 "Hg5 mi
12:00 AM64 °FPassing clouds.1 mph100%29.80 "Hg5 mi
11:30 PM
Jul 31
64 °FPassing clouds.2 mph100%29.77 "Hg5 mi
11:00 PM64 °FLight rain. Passing clouds.1 mph100%29.77 "Hg5 mi
10:30 PM64 °FPassing clouds.2 mph100%29.80 "HgN/A
10:00 PM64 °FPassing clouds.2 mph100%29.80 "HgN/A
9:30 PM64 °FPassing clouds.2 mph100%29.77 "HgN/A
9:00 PM66 °FPassing clouds.2 mph94%29.80 "HgN/A
8:30 PM66 °FScattered clouds.2 mph94%29.77 "HgN/A
8:00 PM66 °FScattered clouds.3 mph100%29.77 "HgN/A
7:30 PM66 °FPassing clouds.3 mph100%29.77 "HgN/A
7:00 PM66 °FLight rain. Scattered clouds.1 mph100%29.80 "HgN/A
6:30 PM68 °FLight rain. Broken clouds.2 mph94%29.80 "HgN/A
6:00 PM68 °FLight rain. Broken clouds.2 mph94%29.77 "HgN/A
5:30 PM68 °FPartly sunny.3 mph94%29.77 "HgN/A
5:00 PM66 °FThunderstorms. Partly sunny.1 mph94%29.77 "HgN/A
4:30 PM66 °FThunderstorms. Partly sunny.3 mph94%29.77 "HgN/A
4:00 PM66 °FPartly sunny.2 mph94%29.77 "HgN/A
3:30 PM66 °FThunderstorms. Scattered clouds.2 mph88%29.77 "HgN/A
3:00 PM66 °FThunderstorms. Partly sunny.9 mph94%29.80 "Hg4 mi
2:30 PM66 °FThunderstorms. Broken clouds.3 mph94%29.77 "HgN/A
2:00 PM64 °FThunderstorms. Broken clouds.16 mph94%29.77 "Hg2 mi
Weather by CustomWeather, © 2014

See weather overviewHow to use our weather pages